Regional Weather Roundup
Issued by NWS Newport/Morehead, NC

Current Version | Previous Version | Graphics & Text | Print | Product List | Glossary Off
Versions: 1 2 3 4 5 6 7 8 9 10 11 12 13 14 15 16 17 18 19 20 21 22 23 24 25 26 27 28 29 30 31 32 33 34 35 36 37 38 39 40 41 42 43 44 45 46 47 48 49 50
000 ASUS42 KMHX 060513 RWRMHX WEATHER ROUNDUP FOR EASTERN NORTH CAROLINA NATIONAL WEATHER SERVICE NEWPORT/MOREHEAD CITY NC 1200 AM EST TUE DEC 06 2016 NOTE: "FAIR" INDICATES FEW OR NO CLOUDS BELOW 12,000 FEET WITH NO SIGNIFICANT WEATHER AND/OR OBSTRUCTIONS TO VISIBILITY NCZ015>017-031-032-045>047-102-103-060600- NORTH COAST CITY SKY/WX TMP DP RH WIND PRES REMARKS EDENTON CLOUDY 49 43 82 CALM 30.11F ELIZABETH CITY CLOUDY 49 43 80 N8 30.09F KITTY HAWK CLOUDY 52 47 85 NE5 30.07F MANTEO CLOUDY 51 46 81 NE7 30.09R $$ NCZ045>047-081-094-103-104-060600- CENTRAL COAST CITY SKY/WX TMP DP RH WIND PRES REMARKS FRISCO CLOUDY 53 47 79 NE6 30.06F $$ NCZ095-097-098-100-101-060600- SOUTHERN COAST CITY SKY/WX TMP DP RH WIND PRES REMARKS BEAUFORT LGT RAIN 50 48 93 VRB6 30.03F CEDAR ISLAND NOT AVBL JACKSONVILLE CLOUDY 50 46 86 NE8 30.05S PINEY ISLAND LGT RAIN N/A N/A N/A NE7 30.05F WILMINGTON RAIN 48 47 96 NE9 30.04R $$ NCZ011>013-027>030-043-044-078>080-089-090>093-098-060600- COASTAL PLAIN CITY SKY/WX TMP DP RH WIND PRES REMARKS AHOSKIE CLOUDY 45 43 95 CALM 30.11S CLINTON CLOUDY 52 47 82 E5 30.06R ELIZABETHTOWN RAIN 51 50 94 CALM 30.05S GOLDSBORO LGT RAIN 50 49 93 E9 30.04F GREENVILLE CLOUDY 50 45 81 NE5 30.10R HAVELOCK CLOUDY 50 45 83 NE12 30.05F KENANSVILLE CLOUDY 52 43 71 E6 30.05F KINSTON N/A 50 43 76 NE6 30.07F NEW BERN CLOUDY 49 44 83 NE8 30.07F RICHLANDS CLOUDY 50 46 86 E9 30.06S ROCKY MOUNT CLOUDY 49 45 86 NE5 30.07F WASHINGTON CLOUDY 47 42 82 NE8 30.09S WHITEVILLE NOT AVBL $$ AMZ130-135-150-152-154-156-158-170-250-252-270-ANZ085-086-088-633-658-670-060600- MARINE OBSERVATIONS STATION/POSITION TIME TEMP WIND PRES WAVE SWELL AIR SEA DIR/SP/G HT/PER HT/PER (UTC) (F) (DEG/KT/KT) (MB) (FT/S) (FT/S) CHESAPEAKE LIGHT NOT AVBL 64 E VA BEACH 0450 54 60 20/ 14/ 17 1018.2 5/ 6 3/ 9 DUCK 0448 53 54 40/ 12/ 13 1018.2 2 E DUCK NOT AVBL OREGON INLET 0436 53 56 20/ 9/ 12 1018.8 13E OREGON INLT NOT AVBL HATTERAS CG 0448 53 60 30/ 6/ 8 1017.6 DIAMOND BUOY 0450 59 77 20/ 14/ 17 1017.7 5/ 8 3/ 8 CAPE LOOKOUT 0500 50 10/ 15/ 18 1016.8 BEAUFORT LAB 0448 50 56 30/ 9/ 12 1016.1 30 SE NEW RVR IN 0408 54 70 50/ 19/ 27 1015.5 30 SE NEW RVR IN NOT AVBL 27 SE WRIGHTSVLE 0408 59 68 70/ 19/ 27 1015.4 5 SE WRIGHTSVLE 0408 52 62 70/ 14/ 33 1015.6 225 S CAPE HAT 0450 72 74 240/ 12/ 14 1014.9 5/ 6 3/ 6 41 SE CHARLESTON 0450 71 74 70/ 14/ 16 1012.1 4/ 4 2/ 6 $$

USA.gov is the U.S. government's official web portal to all federal, state and local government web resources and services.